Location: Cheyres
(46.8153°N, 6.7877°E)
Time: 03:17:49
(UTC+00:00)

Cosmos 1812 - Pass Details

Date: 11 May 2021
Orbit: 514 x 521 km, 82.5° (Epoch: 18 June)

Event Time Altitude Azimuth Distance (km) Brightness Sun altitude
Exits shadow 20:46:58 21° 184° (S) 1,219 4.2 -15.5°
Maximum altitude 20:49:29 83° 99° (E) 533 2.6 -15.8°
Drops below altitude 10° 20:53:23 10° 11° (N) 1,769 6.0 -16.2°
Sets 20:55:32 0° 10° (N) 2,662 7.0 -16.4°
